Overview Statistics Trail Chart Weather Telemetry Raw packets
 

This is the latest recevied weather packets stored in our database for station/object KQ7A. If no packets are shown the sender has not sent any weather packets the latest 10 day(s).

<< 87 88 89 90 91 92 93 >>
Time Temp. Humidity Pressure Rain* Wind** Luminosity Snow
1788040439 26.67° C 29% 1018.9 hPa 0 mm - 638 W/m² -
1788040135 26.11° C 24% 1019.2 hPa 0 mm - 642 W/m² -
1788039829 26.67° C 25% 1019.2 hPa 0 mm - 637 W/m² -
1788039524 26.11° C 25% 1018.9 hPa 0 mm - 440 W/m² -
1788039219 26.11° C 27% 1019.4 hPa 0 mm - 662 W/m² -
1788038914 26.11° C 25% 1019.2 hPa 0 mm - 686 W/m² -
1788038610 26.11° C 26% 1019.2 hPa 0 mm - 679 W/m² -
1788038309 26.11° C 27% 1019.1 hPa 0 mm - 693 W/m² -
1788038005 26.11° C 27% 1019 hPa 0 mm - 706 W/m² -
1788037698 26.11° C 25% 1019.4 hPa 0 mm - 680 W/m² -
1788037388 26.11° C 27% 1019.2 hPa 0 mm - 693 W/m² -
1788037087 26.67° C 27% 1019.1 hPa 0 mm - 717 W/m² -
1788036783 26.11° C 28% 1019.2 hPa 0 mm - 711 W/m² -
1788036479 26.67° C 25% 1019.2 hPa 0 mm - 711 W/m² -
1788036174 26.11° C 27% 1019.2 hPa 0 mm - 737 W/m² -
1788035874 26.11° C 26% 1019.3 hPa 0 mm - 715 W/m² -
1788035563 26.11° C 28% 1019.4 hPa 0 mm - 722 W/m² -
1788035258 26.11° C 26% 1019.4 hPa 0 mm - 772 W/m² -
1788034954 26.11° C 27% 1019.4 hPa 0 mm - 730 W/m² -
1788034650 25.56° C 28% 1019.3 hPa 0 mm - 734 W/m² -
1788034346 26.67° C 26% 1019.4 hPa 0 mm - 731 W/m² -
1788034046 26.11° C 25% 1019.3 hPa 0 mm - 714 W/m² -
1788033739 25.56° C 25% 1019.6 hPa 0 mm - 727 W/m² -
1788033434 26.11° C 24% 1019.9 hPa 0 mm - 753 W/m² -
1788033129 25.56° C 26% 1019.9 hPa 0 mm - 773 W/m² -

* Rain latest hour (hover to see other rain measurements)
** Current wind speed in m/s (hover to see current wind gust speed)